Temperature
23 19 19 20 20 21 22 22 22 24 25 25 24 24 24 25 25 24 23 23 23 23 23 23 23 22 22 22 21 21 20 20 20 19 19 18 18 18 18 18 17 17 17 17
20 19 21 21 22 22 22 22 22 23 25 25 24 24 24 24 24 24 23 23 22 22 22 22 22 22 22 21 21 21 20 20 19 19 19 19 18 18 18 18 17 17 17 17
20 21 22 23 22 23 23 22 23 23 24 24 24 23 23 24 24 24 23 23 23 22 22 21 21 21 21 21 21 20 20 20 19 19 18 18 18 18 18 17 17 17 17 17
20 22 23 23 23 23 22 23 24 24 23 21 23 21 22 22 22 22 22 22 22 22 21 21 21 21 21 21 20 20 20 19 19 19 18 18 18 18 18 18 17 17 17 17
21 22 22 23 23 24 23 24 24 24 22 21 22 21 21 21 21 21 21 22 22 22 21 21 21 21 20 20 20 20 19 19 18 18 18 18 18 18 17 17 17 17 17 17
21 23 23 24 24 24 24 24 22 20 19 20 21 21 20 20 21 21 21 22 22 21 21 21 21 20 20 20 19 19 19 18 18 18 18 17 17 17 17 17 17 17 17 17
22 22 24 24 24 24 23 20 19 19 18 19 21 20 19 20 21 21 21 21 21 21 21 20 20 20 20 19 19 19 19 18 18 17 17 17 17 17 17 17 17 17 17 17
20 20 23 24 23 22 22 20 19 19 19 19 21 20 20 21 21 22 21 21 21 21 20 20 20 20 20 19 19 19 19 18 18 17 17 17 17 17 17 17 16 16 17 17
20 20 23 24 24 23 22 20 19 18 19 19 19 20 20 20 20 20 20 20 20 20 20 20 19 19 19 19 19 18 18 18 17 17 17 17 16 16 16 16 16 16 16 16
20 21 22 24 24 23 22 21 18 18 19 19 20 19 19 20 19 19 19 19 19 19 20 19 19 19 19 19 19 18 18 18 17 17 17 16 16 16 16 16 16 16 16 16
20 20 21 22 22 22 21 21 18 16 17 18 19 18 20 19 18 18 18 19 19 19 19 19 19 19 18 18 18 18 17 17 17 17 16 16 16 16 16 16 16 16 16 16
19 17 18 20 22 22 22 20 18 18 18 17 17 18 20 19 18 18 18 18 19 19 19 19 18 18 17 17 17 17 17 17 17 16 16 16 16 16 16 16 15 15 15 15
19 17 17 19 19 20 21 21 19 17 16 16 17 18 19 18 18 18 18 18 18 18 18 18 18 18 18 17 17 17 17 16 16 16 16 16 16 16 16 15 15 15 15 15
19 16 17 18 18 19 20 21 20 18 16 17 18 18 18 18 17 17 18 18 18 18 18 18 18 18 17 17 17 17 16 16 16 16 16 16 15 16 15 15 15 15 15 15
17 17 18 18 20 21 21 21 20 19 18 18 18 18 18 17 17 17 18 18 17 17 17 17 17 17 17 17 17 16 16 16 16 16 15 15 15 15 15 15 15 15 15 14
15 17 18 18 20 20 20 20 20 20 19 18 18 18 17 18 18 18 17 17 17 17 17 17 17 17 16 16 16 16 15 15 15 15 15 15 15 15 14 14 14 14 14 14
15 16 16 16 18 19 18 19 19 19 19 18 17 17 17 16 16 17 17 17 16 16 16 16 16 16 16 16 16 16 15 15 15 15 15 15 15 14 14 14 14 14 14 14
15 15 14 15 17 17 17 18 19 19 18 17 17 16 16 16 17 17 17 17 16 16 16 16 16 16 16 16 16 15 15 15 14 14 14 14 14 14 14 14 14 14 14 14
14 14 14 14 15 16 18 18 18 18 17 16 16 16 16 16 16 16 16 16 16 16 16 16 16 16 16 16 15 15 14 14 14 14 14 14 14 14 13 13 13 13 13 13
14 14 14 14 15 15 16 17 18 17 16 16 15 15 15 15 14 14 16 16 16 16 16 16 15 15 15 15 15 14 14 14 13 13 13 13 13 13 13 13 13 13 13 13
14 13 13 14 14 14 16 17 18 16 15 15 16 16 15 14 15 16 16 16 15 15 15 15 15 15 14 14 14 14 14 13 13 13 13 13 13 13 13 13 13 13 12 12
13 13 13 13 13 14 15 16 15 14 15 16 16 16 16 16 16 15 15 15 15 15 15 14 14 14 14 14 14 13 13 13 13 13 13 12 12 12 12 12 12 12 12 12
13 13 12 12 13 14 15 15 16 16 16 16 16 16 16 15 15 14 14 14 14 14 14 14 14 13 13 13 13 13 13 13 12 12 12 12 12 12 12 12 12 12 12 12
13 13 12 13 13 14 15 16 16 16 16 16 16 15 15 15 14 14 14 14 14 14 13 13 13 13 13 13 12 12 12 12 12 12 12 12 12 12 12 12 12 12 12 12
12 13 12 12 13 14 15 15 16 16 16 16 15 15 15 14 14 14 13 13 13 13 13 13 13 12 12 12 12 12 12 12 11 11 11 11 11 11 11 11 11 12 12 12
12 12 12 12 13 12 14 15 15 15 15 15 15 14 14 14 13 13 13 13 13 13 12 12 12 12 12 12 12 12 12 11 11 11 11 11 11 11 11 11 11 11 11 11
Wind_Speed
2 3 5 9 9 8 6 6 9 10 8 3 6 7 9 8 8 10 11 11 11 11 9 9 10 11 10 9 9 10 10 8 7 5 5 4 3 3 2 2 4 5 5 6
1 6 11 8 6 6 7 8 9 9 7 3 5 5 5 6 8 11 13 12 12 9 8 9 9 10 10 9 9 9 9 9 8 6 5 4 4 2 3 2 2 4 5 5
9 8 8 7 8 7 8 8 8 8 6 3 0 4 3 2 2 6 10 11 13 14 13 11 10 10 10 10 10 9 9 9 8 7 5 4 3 2 1 1 1 2 4 5
7 9 7 7 8 8 8 9 8 6 2 4 1 2 6 2 2 5 7 9 11 12 12 11 11 10 10 9 9 8 9 8 7 8 7 8 6 4 4 3 2 2 3 4
6 6 7 8 10 8 9 8 6 5 2 2 2 2 6 1 3 5 7 10 12 12 13 12 11 10 9 8 8 7 8 7 7 7 8 7 5 3 3 3 3 2 2 2
8 7 7 9 8 7 6 2 3 3 4 2 5 4 4 4 6 6 6 9 10 10 10 10 9 8 7 6 6 7 7 6 6 7 6 6 6 6 5 4 4 3 1 1
6 7 5 4 4 4 1 4 3 4 3 5 4 3 5 5 4 7 9 8 8 9 9 9 9 9 8 8 7 7 8 6 5 6 6 6 6 6 7 5 5 4 3 2
4 6 5 3 5 5 4 9 8 5 5 4 2 3 4 2 1 4 7 8 8 8 8 8 8 8 9 9 8 8 8 7 6 6 5 5 5 4 4 4 4 4 3 3
6 6 5 5 4 6 3 4 8 7 2 0 2 1 3 3 4 4 6 7 7 7 8 8 8 8 8 8 7 8 8 7 6 6 6 5 5 4 4 4 4 3 2 2
5 4 5 3 2 1 5 5 5 5 3 2 3 2 3 2 1 3 5 7 6 6 7 7 8 8 7 6 6 6 7 7 6 6 5 5 4 4 4 4 4 3 3 2
4 3 5 2 3 4 1 2 4 4 5 5 3 5 5 7 6 5 5 6 7 7 7 6 7 8 8 7 7 6 5 5 5 5 4 4 3 3 3 3 3 3 3 3
2 4 3 5 5 5 6 5 6 4 3 4 4 5 4 5 6 7 6 4 5 6 6 7 8 7 7 7 7 6 6 5 5 5 5 5 4 4 3 3 3 3 3 3
3 5 1 6 6 3 1 3 4 5 4 3 4 4 1 3 5 6 7 5 4 5 4 5 6 7 7 6 6 6 6 6 5 5 5 4 4 4 4 4 3 3 3 3
4 4 6 7 6 3 2 2 1 5 4 3 5 4 1 2 3 4 5 5 5 5 5 5 5 5 6 6 6 6 5 4 5 5 5 4 4 4 4 4 3 3 3 3
4 2 3 4 4 2 1 2 1 3 5 5 5 5 5 6 6 5 5 6 6 5 5 5 5 6 6 5 5 5 5 5 5 5 5 5 4 3 3 3 3 3 3 3
4 2 1 2 2 1 2 3 3 3 3 4 4 3 4 4 3 4 4 5 6 5 5 4 5 6 6 6 6 5 5 5 5 5 5 4 4 3 3 3 3 3 2 2
1 2 2 3 4 2 4 4 3 2 1 4 5 5 3 3 5 5 5 5 5 5 5 5 5 6 6 6 5 5 5 4 3 4 4 4 4 4 4 3 3 3 3 2
4 3 3 1 1 4 6 3 2 3 1 2 3 3 6 7 7 5 5 5 5 6 6 4 4 5 4 4 4 4 4 4 3 2 2 3 3 3 3 3 3 3 3 3
6 6 3 2 2 4 3 2 1 3 0 2 2 3 4 4 5 3 2 3 4 5 5 4 4 4 4 4 4 5 4 3 3 1 2 2 3 3 3 3 3 3 2 2
4 5 4 3 3 4 4 4 1 5 1 2 2 5 5 5 3 3 2 3 4 4 4 4 4 4 4 3 4 5 4 3 3 3 2 2 2 3 3 3 2 2 2 2
3 2 3 3 3 4 4 5 2 4 6 3 2 4 5 4 4 4 3 3 5 5 4 4 4 3 3 3 5 4 3 3 3 2 2 2 2 2 2 2 2 2 2 1
3 2 2 3 3 5 4 2 2 5 3 2 3 4 5 4 4 5 5 5 5 4 4 4 3 1 2 3 5 4 2 3 3 3 2 1 1 1 1 1 1 1 2 2
2 4 4 5 5 5 2 3 4 4 4 3 4 5 7 6 5 5 5 4 4 4 3 2 3 1 1 2 4 4 4 3 3 3 2 2 1 0 1 2 1 1 1 2
3 2 2 1 1 1 0 0 1 3 4 4 5 6 6 6 6 6 5 3 3 2 2 2 3 2 1 1 2 3 3 3 4 3 2 2 2 1 0 1 1 2 2 2
3 2 1 0 2 2 3 1 1 3 5 6 6 5 6 5 5 5 5 4 3 2 1 1 3 2 2 2 1 2 2 3 3 3 3 2 2 3 2 1 1 2 3 4
2 2 3 4 4 2 3 2 2 4 4 4 5 4 4 6 5 5 4 3 3 3 2 1 1 1 2 1 2 2 2 3 4 3 3 3 2 2 2 2 1 2 1 3
Wind_Direction
222 117 221 227 212 211 239 262 273 274 273 245 237 229 229 210 182 173 167 163 166 171 168 155 147 148 144 147 152 155 155 157 150 147 148 150 153 151 148 157 157 157 156 152
23 242 232 229 236 240 255 267 275 286 283 257 234 236 224 205 186 174 169 170 168 159 155 154 147 148 154 159 161 156 160 162 161 162 159 156 149 154 161 157 152 155 150 155
208 236 230 223 239 248 257 245 253 262 296 330 139 300 276 256 189 168 168 171 168 167 164 158 151 159 162 167 165 163 165 165 162 153 137 121 98 79 95 148 179 173 155 153
236 248 241 234 237 220 249 249 249 256 280 284 150 238 272 232 179 180 177 168 168 166 161 160 159 162 167 167 161 157 160 160 161 157 157 155 156 163 188 183 175 158 148 146
245 235 235 235 234 216 227 246 246 251 236 296 316 155 276 299 193 212 189 173 169 168 164 162 164 165 160 156 155 150 150 153 157 161 164 165 162 163 152 145 147 152 146 145
247 250 220 222 235 226 227 290 349 26 70 290 250 165 265 253 213 204 189 169 164 164 159 157 154 147 140 143 148 147 147 155 158 156 157 164 163 156 151 154 164 174 173 184
278 278 262 216 235 283 154 100 31 351 357 247 257 152 237 262 216 189 178 165 156 154 150 150 150 150 152 154 156 157 151 159 163 158 158 162 163 165 171 170 174 168 173 196
226 273 258 219 188 203 208 151 163 195 221 268 331 184 243 268 97 143 148 144 140 143 147 153 160 160 162 162 162 161 161 164 167 166 165 161 158 158 162 164 165 173 182 198
197 247 265 226 187 158 179 191 173 151 194 193 284 274 313 23 68 92 116 117 126 138 145 151 157 158 160 160 161 166 169 170 174 173 161 155 155 152 151 154 150 160 172 181
177 236 281 266 75 98 158 163 96 119 156 228 266 221 220 224 128 95 123 134 144 142 148 155 156 155 151 151 150 161 166 173 174 169 165 159 156 159 157 154 156 161 178 183
167 184 295 345 166 201 108 105 111 133 156 160 223 260 220 188 172 149 152 156 152 154 155 155 150 150 149 145 145 145 154 149 152 158 154 150 152 162 157 168 181 179 180 185
174 142 243 262 256 197 164 166 143 154 225 167 170 254 273 169 155 139 132 135 141 151 155 152 146 143 146 150 151 155 158 157 164 167 157 159 161 163 165 184 195 188 189 197
146 121 80 333 334 357 131 159 152 145 139 155 168 249 328 129 127 134 131 127 120 133 136 136 138 148 151 150 152 160 164 166 168 161 157 158 162 166 180 194 194 189 190 196
126 124 161 199 222 236 265 286 159 136 159 201 207 203 208 143 126 133 135 135 129 126 127 128 130 143 153 153 157 160 157 165 166 160 159 165 179 185 189 189 188 191 189 187
92 138 200 223 241 217 248 275 231 172 176 180 207 188 204 190 179 165 148 139 125 121 119 130 138 140 138 141 154 162 165 174 175 167 172 186 189 185 181 185 190 189 190 193
64 104 58 310 291 306 305 285 248 212 162 158 154 211 229 181 140 129 136 140 141 139 132 129 135 137 141 148 157 161 170 179 175 171 180 183 175 180 186 191 185 177 188 196
60 100 92 269 294 340 278 254 213 207 165 164 193 220 187 148 145 156 163 156 156 152 138 134 149 156 160 159 158 168 171 166 160 178 182 179 173 179 192 196 182 190 197 193
155 132 139 207 28 224 240 247 148 142 107 112 145 177 167 172 174 165 155 153 153 155 149 141 143 148 152 141 135 141 139 141 145 174 180 184 178 184 186 180 188 204 207 207
162 149 138 139 196 260 294 320 96 129 42 39 124 139 140 128 94 65 98 136 150 151 150 150 149 147 140 138 136 126 130 133 135 166 201 192 177 176 185 199 208 207 201 213
92 114 130 150 178 225 255 299 292 115 253 320 127 137 136 115 126 230 220 131 121 115 123 126 119 120 135 151 134 127 134 133 156 184 208 198 181 174 185 201 211 207 195 209
58 66 141 173 203 254 278 303 26 148 219 239 158 142 138 148 185 193 157 118 120 113 111 112 108 122 157 151 129 129 138 171 189 186 170 174 186 192 190 186 187 183 191 191
155 148 179 161 187 251 303 355 155 204 209 163 143 132 124 124 121 122 120 113 114 109 101 106 103 120 135 139 136 142 180 205 172 155 151 171 207 198 177 159 182 185 177 179
146 184 182 182 204 232 235 203 213 165 146 143 135 130 124 118 122 122 119 119 113 113 107 104 112 111 112 133 154 172 208 195 154 145 167 181 190 189 166 171 189 208 199 198
330 23 94 84 256 229 73 173 152 136 130 126 122 126 126 130 138 134 132 131 124 112 113 113 128 145 182 186 188 198 200 172 156 168 181 188 179 178 207 188 184 186 204 207
273 353 46 269 280 10 9 47 119 103 104 111 122 126 133 134 139 143 145 153 146 133 113 138 156 178 214 205 217 209 191 167 167 179 185 194 193 184 183 201 217 207 217 207
255 191 183 224 237 198 241 251 119 107 110 125 128 125 135 140 147 145 147 162 158 150 149 147 143 191 210 210 220 221 196 173 170 180 191 198 202 195 185 181 322 339 241 243
Height
1483 1490 1494 1491 1490 1491 1492 1494 1495 1486 1476 1478 1481 1480 1477 1476 1478 1480 1482 1486 1488 1490 1492 1494 1497 1499 1501 1503 1505 1507 1509 1511 1513 1514 1516 1517 1518 1520 1520 1521 1522 1523 1524 1524
1488 1491 1483 1481 1483 1486 1489 1494 1493 1484 1474 1476 1480 1479 1475 1474 1475 1477 1480 1483 1485 1488 1491 1493 1495 1498 1499 1501 1503 1505 1507 1509 1511 1513 1514 1516 1517 1518 1519 1520 1521 1522 1523 1523
1488 1482 1476 1480 1483 1486 1487 1490 1488 1486 1477 1475 1480 1485 1480 1475 1475 1477 1479 1480 1483 1484 1487 1490 1492 1495 1497 1499 1501 1502 1504 1507 1510 1512 1514 1515 1516 1517 1518 1519 1520 1521 1522 1523
1482 1475 1475 1478 1480 1481 1489 1478 1478 1479 1487 1494 1485 1504 1487 1478 1478 1477 1477 1479 1481 1483 1485 1487 1489 1491 1495 1497 1499 1501 1504 1506 1508 1510 1512 1512 1512 1513 1515 1517 1518 1520 1521 1521
1478 1472 1474 1476 1473 1473 1476 1470 1473 1476 1484 1492 1489 1499 1494 1481 1482 1478 1476 1476 1478 1480 1482 1485 1486 1489 1492 1495 1497 1499 1502 1505 1507 1509 1510 1511 1512 1513 1514 1516 1517 1518 1519 1520
1471 1466 1466 1466 1464 1465 1466 1471 1475 1483 1493 1505 1492 1497 1498 1485 1479 1476 1475 1475 1476 1479 1481 1484 1486 1488 1491 1494 1496 1499 1501 1503 1505 1507 1508 1509 1510 1511 1513 1514 1516 1517 1518 1519
1474 1466 1461 1460 1465 1465 1468 1486 1505 1508 1514 1508 1488 1493 1496 1477 1471 1471 1471 1473 1475 1477 1480 1483 1485 1487 1489 1492 1495 1497 1500 1502 1504 1505 1506 1508 1509 1510 1511 1513 1514 1515 1516 1517
1484 1481 1463 1458 1462 1468 1470 1481 1505 1515 1515 1505 1489 1495 1488 1473 1469 1469 1469 1471 1473 1475 1478 1481 1483 1485 1487 1490 1492 1495 1497 1500 1502 1503 1504 1506 1508 1509 1510 1511 1513 1514 1515 1516
1480 1478 1457 1453 1453 1459 1469 1477 1478 1496 1497 1504 1499 1491 1481 1473 1471 1471 1471 1473 1474 1475 1477 1480 1482 1484 1486 1488 1491 1493 1495 1498 1500 1501 1503 1504 1506 1507 1508 1509 1511 1512 1513 1514
1466 1473 1460 1453 1453 1456 1461 1467 1483 1495 1507 1510 1500 1495 1492 1480 1476 1474 1473 1473 1474 1475 1476 1478 1480 1482 1484 1487 1490 1492 1495 1496 1498 1500 1501 1503 1504 1506 1507 1508 1509 1510 1511 1513
1461 1473 1467 1460 1462 1465 1465 1471 1479 1492 1496 1507 1509 1501 1474 1473 1472 1472 1473 1473 1474 1475 1476 1478 1479 1481 1484 1486 1489 1492 1493 1494 1497 1498 1500 1501 1502 1504 1505 1506 1507 1508 1509 1510
1460 1471 1476 1466 1456 1453 1458 1466 1477 1492 1495 1496 1502 1497 1468 1467 1468 1470 1472 1474 1474 1475 1476 1477 1478 1481 1484 1486 1488 1490 1492 1493 1495 1497 1498 1500 1501 1502 1503 1504 1505 1506 1507 1508
1458 1471 1483 1479 1472 1461 1461 1462 1467 1478 1488 1495 1500 1492 1469 1468 1469 1470 1472 1473 1474 1475 1476 1477 1479 1480 1482 1484 1487 1489 1491 1492 1494 1495 1497 1498 1499 1500 1501 1502 1503 1504 1505 1506
1454 1469 1478 1483 1477 1467 1465 1462 1463 1474 1489 1490 1487 1482 1475 1472 1472 1471 1472 1473 1474 1475 1476 1477 1478 1480 1482 1484 1486 1488 1490 1492 1493 1494 1495 1496 1497 1498 1499 1500 1501 1502 1502 1503
1456 1467 1466 1465 1460 1459 1461 1462 1462 1467 1473 1481 1479 1476 1473 1470 1470 1471 1471 1473 1474 1474 1475 1476 1477 1479 1481 1483 1485 1488 1489 1490 1491 1492 1493 1494 1495 1496 1497 1497 1498 1499 1500 1501
1459 1466 1465 1466 1459 1459 1461 1460 1460 1462 1465 1470 1471 1474 1468 1467 1468 1469 1471 1472 1473 1474 1475 1476 1477 1478 1480 1481 1484 1486 1487 1489 1490 1490 1491 1492 1493 1494 1494 1495 1496 1497 1498 1498
1463 1467 1472 1475 1464 1462 1471 1462 1461 1462 1462 1466 1472 1471 1467 1468 1468 1468 1470 1472 1473 1473 1474 1475 1476 1477 1479 1480 1482 1483 1485 1487 1488 1488 1489 1490 1491 1491 1492 1493 1494 1494 1495 1496
1462 1467 1475 1476 1472 1481 1470 1456 1455 1459 1461 1461 1463 1463 1463 1464 1465 1467 1469 1470 1471 1473 1473 1474 1475 1477 1477 1479 1480 1481 1483 1485 1486 1486 1487 1487 1488 1489 1490 1491 1491 1492 1492 1493
1454 1463 1473 1480 1479 1474 1463 1457 1457 1461 1464 1461 1462 1461 1462 1463 1465 1468 1469 1469 1470 1471 1472 1474 1475 1475 1476 1478 1479 1480 1482 1482 1483 1484 1485 1485 1486 1486 1487 1488 1489 1489 1490 1490
1453 1458 1470 1476 1478 1479 1468 1456 1453 1458 1467 1461 1460 1460 1461 1462 1469 1469 1468 1468 1469 1470 1471 1472 1474 1475 1476 1477 1478 1479 1480 1480 1481 1482 1483 1483 1483 1484 1485 1485 1486 1486 1487 1487
1464 1467 1472 1475 1477 1472 1460 1455 1453 1468 1468 1460 1458 1458 1459 1461 1463 1464 1465 1467 1468 1469 1470 1471 1473 1474 1475 1476 1477 1477 1478 1478 1479 1480 1480 1480 1481 1482 1482 1483 1483 1484 1484 1485
1467 1472 1474 1475 1478 1475 1458 1456 1459 1461 1457 1457 1457 1457 1458 1459 1461 1462 1464 1466 1467 1468 1469 1471 1472 1472 1473 1474 1475 1476 1476 1477 1477 1478 1478 1479 1479 1479 1480 1480 1481 1482 1482 1482
1463 1465 1466 1468 1469 1460 1456 1456 1455 1455 1455 1456 1456 1457 1458 1459 1461 1462 1463 1465 1466 1467 1468 1469 1470 1470 1471 1473 1474 1474 1474 1475 1475 1475 1476 1477 1477 1477 1477 1477 1478 1479 1480 1480
1461 1458 1461 1462 1460 1457 1456 1455 1455 1455 1455 1456 1457 1458 1459 1459 1460 1461 1463 1464 1465 1466 1467 1468 1469 1469 1470 1471 1471 1472 1472 1472 1472 1472 1473 1474 1475 1475 1475 1475 1476 1476 1477 1477
1461 1460 1462 1462 1459 1457 1456 1456 1455 1455 1455 1456 1457 1458 1459 1460 1460 1461 1462 1463 1464 1465 1466 1467 1467 1467 1468 1468 1468 1469 1470 1470 1470 1471 1471 1472 1472 1472 1473 1473 1473 1474 1474 1475
1459 1460 1462 1461 1457 1458 1458 1456 1455 1455 1456 1457 1457 1458 1459 1459 1459 1460 1461 1462 1463 1463 1465 1465 1465 1466 1466 1466 1466 1466 1467 1467 1467 1468 1468 1469 1469 1470 1471 1471 1471 1472 1472 1473